Record,Date/Time,10,Tamb(K),Rh(%),Pres(mb),Tir(K),Rain,Az(deg),El(deg),TkBB(K), Ch  22.234, Ch  23.034, Ch  23.834, Ch  26.234, Ch  30.000, Ch  51.248, Ch  52.280, Ch  53.848, Ch  54.940, Ch  56.660, Ch  57.288, Ch  58.800, Ch 
Record,Date/Time,40,Tamb(K),Rh(%),Pres(mb),Tir(K),Rain
Record,Date/Time,50,Az(deg),El(deg),TkBB(K), Ch  22.000, Ch  22.234, Ch  22.500, Ch  23.000, Ch  23.034, Ch  23.500, Ch  23.834, Ch  24.000, Ch  24.500, Ch  25.000, Ch  25.500, Ch  26.000, Ch  26.234, Ch  26.500, Ch  27.000, Ch  27.500, Ch  28.000, Ch  28.500, Ch  29.000, Ch  29.500, Ch  30.000, Ch  51.248, Ch  51.760, Ch  52.280, Ch  52.804, Ch  53.336, Ch  53.848, Ch  54.400, Ch  54.940, Ch  55.500, Ch  56.020, Ch  56.660, Ch  57.288, Ch  57.964, Ch  58.800, Ch 
Record,Date/Time,80,ID,SNR,Tamb(K),Rh(%),Pres(mb),Tir(K),Rain,Az(deg),El(deg),TkBB(K), Ch  22.234, Ch  23.034, Ch  23.834, Ch  26.234, Ch  30.000, Ch  51.248, Ch  52.280, Ch  53.848, Ch  54.940, Ch  56.660, Ch  57.288, Ch  58.800, Ch 
     1,08/03/18 00:00:37,41, 288.1590,  77.5000,1012.2160, 222.9700,1
     2,08/03/18 00:01:14,51,  0.00, 19.80,299.882, 93.252, 96.795, 96.582, 92.896,, 85.414, 80.488, 78.570, 72.393, 64.367, 60.757, 56.192,,, 52.731,, 49.994,, 48.676,, 49.794,223.947,243.453,263.986,281.291,291.146,293.029,292.808,291.849,289.836,288.225,287.445,285.871,287.067,286.855,
     3,08/03/18 00:01:33,51,  0.00, 90.00,299.885, 38.027, 40.520, 39.730, 38.479,, 35.473, 33.499, 32.666, 30.736, 26.850, 26.043, 24.277,,, 22.905,, 22.233,, 22.284,, 22.040,114.413,132.310,158.360,192.012,230.243,263.434,285.507,293.444,294.153,292.911,292.299,288.549,290.758,290.133,
     4,08/03/18 00:01:52,51,  0.00,160.20,299.859, 83.357, 87.187, 86.126, 82.857,, 76.007, 71.733, 69.922, 63.504, 57.585, 53.784, 50.421,,, 47.163,, 44.734,, 44.280,, 46.007,212.364,232.723,256.463,276.873,290.101,293.926,294.878,293.752,291.725,289.743,288.729,286.641,287.680,286.960,
     5,08/03/18 00:02:15,41, 288.1590,  77.9000,1011.9440, 222.5500,1
     6,08/03/18 00:02:52,51,  0.00, 19.80,299.931, 93.555, 96.521, 96.621, 92.626,, 85.376, 81.092, 78.211, 71.793, 64.853, 60.136, 55.985,,, 53.079,, 49.655,, 48.235,, 49.605,223.984,243.565,263.954,281.386,290.211,293.132,292.586,291.696,289.918,288.070,287.674,285.431,286.553,286.989,
     7,08/03/18 00:03:11,51,  0.00, 90.00,299.890, 38.395, 39.685, 39.723, 37.959,, 35.452, 33.300, 32.558, 30.199, 26.854, 25.536, 23.676,,, 23.588,, 21.547,, 22.031,, 22.760,114.076,132.371,158.594,191.925,229.853,263.652,285.327,293.142,294.401,293.047,292.670,288.936,291.141,290.547,
     8,08/03/18 00:03:29,51,  0.00,160.20,299.903, 83.346, 86.669, 86.087, 82.446,, 76.455, 71.866, 69.576, 63.955, 57.842, 53.862, 49.750,,, 47.621,, 44.948,, 43.910,, 45.804,212.294,232.688,256.273,277.005,289.039,294.141,294.595,293.707,291.565,289.554,288.902,286.355,287.368,287.581,
     9,08/03/18 00:03:53,41, 288.1870,  77.8200,1011.8740, 222.5800,1
    10,08/03/18 00:04:30,51,  0.00, 19.80,299.919, 92.864, 96.221, 96.220, 92.137,, 85.575, 80.739, 78.239, 70.933, 64.095, 60.055, 55.388,,, 52.432,, 48.940,, 48.458,, 49.988,224.113,243.430,264.486,281.043,290.449,292.614,292.575,291.440,290.075,287.865,287.196,285.453,286.677,286.982,
    11,08/03/18 00:04:49,51,  0.00, 90.00,299.935, 38.456, 39.619, 39.902, 38.110,, 35.538, 33.266, 32.419, 29.645, 27.489, 25.829, 23.785,,, 22.993,, 21.503,, 22.112,, 22.338,114.097,132.071,158.338,192.193,229.918,263.613,285.775,293.444,295.153,292.934,292.887,288.515,290.597,291.124,
    12,08/03/18 00:05:07,51,  0.00,160.20,299.939, 83.113, 86.733, 86.333, 82.496,, 76.355, 71.314, 69.380, 63.556, 57.945, 53.574, 49.270,,, 47.337,, 44.538,, 44.299,, 45.449,212.604,233.172,256.325,277.045,289.207,293.956,294.634,293.634,292.349,289.302,289.319,286.179,287.771,288.043,
    13,08/03/18 00:05:31,41, 288.2410,  77.3100,1011.8160, 222.2600,1
    14,08/03/18 00:06:08,51,  0.00, 19.80,299.906, 92.692, 95.577, 95.581, 91.681,, 84.950, 80.400, 78.332, 71.191, 64.275, 59.919, 55.460,,, 52.247,, 49.025,, 47.989,, 48.908,223.580,243.391,264.113,280.773,290.324,292.918,292.333,291.148,289.531,288.162,287.424,285.728,286.544,286.297,
    15,08/03/18 00:06:27,51,  0.00, 90.00,299.921, 38.752, 39.924, 39.866, 37.653,, 35.096, 33.436, 32.684, 30.325, 26.888, 25.265, 24.081,,, 23.170,, 21.546,, 22.317,, 22.466,113.756,132.270,158.774,191.427,229.742,263.416,285.229,293.285,294.732,293.035,292.330,288.773,290.904,290.105,
    16,08/03/18 00:06:46,51,  0.00,160.20,299.920, 83.845, 87.102, 86.390, 82.603,, 76.018, 71.697, 70.006, 63.511, 57.624, 53.741, 50.148,,, 47.242,, 44.597,, 44.160,, 45.200,212.102,233.200,256.518,276.698,289.468,293.901,294.115,293.352,291.932,289.467,288.703,286.420,288.057,287.332,
    17,08/03/18 00:07:10,41, 288.1160,  78.0000,1011.7320, 222.7200,1
    18,08/03/18 00:07:47,51,  0.00, 19.80,299.919, 92.206, 95.314, 95.416, 91.821,, 84.521, 80.235, 77.352, 71.105, 63.829, 60.354, 55.117,,, 52.152,, 48.853,, 48.011,, 49.050,223.811,243.749,264.311,281.114,290.188,292.597,292.222,290.929,289.720,287.868,287.872,285.551,286.668,287.031,
    19,08/03/18 00:08:05,51,  0.00, 90.00,299.901, 38.783, 40.180, 39.930, 38.041,, 35.393, 33.222, 32.096, 30.446, 27.321, 25.485, 23.580,,, 23.059,, 21.653,, 22.245,, 22.355,114.358,132.799,158.481,192.264,230.089,263.530,285.325,293.140,294.798,293.355,292.996,289.359,291.461,290.801,
    20,08/03/18 00:08:24,51,  0.00,160.20,299.908, 83.560, 86.887, 86.401, 82.589,, 76.325, 72.028, 69.610, 63.744, 58.088, 54.468, 50.014,,, 47.446,, 44.506,, 44.045,, 45.345,212.914,233.441,256.651,277.577,289.466,293.586,294.230,293.666,291.953,290.236,289.030,286.856,288.058,288.459,
    21,08/03/18 00:08:48,41, 288.1440,  77.8000,1011.9300, 222.5800,1
    22,08/03/18 00:09:25,51,  0.00, 19.80,299.901, 92.299, 95.448, 95.896, 91.691,, 85.017, 80.231, 77.469, 71.020, 64.072, 59.888, 54.922,,, 52.584,, 49.101,, 48.396,, 49.741,223.698,243.298,264.161,281.221,290.203,292.711,292.346,291.257,289.267,287.827,287.713,285.420,286.566,286.683,
    23,08/03/18 00:09:44,51,  0.00, 90.00,299.898, 38.754, 40.180, 39.982, 38.373,, 35.586, 33.448, 32.373, 30.134, 27.097, 25.568, 23.533,,, 23.033,, 21.822,, 22.203,, 23.146,113.984,132.140,158.639,192.063,229.777,264.021,286.008,293.520,294.882,292.993,293.083,289.383,291.422,290.893,
    24,08/03/18 00:10:02,51,  0.00,160.20,299.957, 83.469, 87.029, 86.737, 82.707,, 76.539, 71.890, 69.473, 63.554, 57.881, 54.221, 49.620,,, 47.309,, 44.769,, 44.416,, 45.738,212.301,232.521,256.668,276.799,289.269,294.338,294.792,293.931,292.093,289.878,288.945,286.614,287.769,287.687,
    25,08/03/18 00:10:25,41, 288.1870,  77.4900,1012.0580, 223.1500,1
    26,08/03/18 00:11:02,51,  0.00, 19.80,299.918, 91.784, 95.165, 94.931, 91.232,, 84.168, 79.878, 77.540, 70.427, 63.779, 59.918, 54.831,,, 51.845,, 49.113,, 47.660,, 49.392,223.054,243.886,264.401,281.248,290.176,292.977,292.533,291.288,289.848,288.139,286.893,286.074,286.847,287.128,
    27,08/03/18 00:11:21,51,  0.00, 90.00,299.914, 38.626, 40.166, 39.810, 38.529,, 35.271, 33.611, 32.910, 30.308, 27.530, 26.355, 23.835,,, 23.238,, 22.050,, 22.144,, 23.080,113.719,133.002,158.843,192.184,230.215,264.249,285.383,292.912,294.402,292.420,292.611,288.877,291.182,291.224,
    28,08/03/18 00:11:40,51,  0.00,160.20,299.916, 83.757, 87.558, 87.038, 83.419,, 76.709, 72.463, 70.185, 63.972, 58.976, 54.629, 50.200,,, 48.071,, 45.414,, 44.682,, 46.475,212.132,233.476,256.642,277.511,289.694,294.250,294.249,293.605,292.040,290.030,288.826,286.638,287.725,288.341,
    29,08/03/18 00:12:03,41, 288.0890,  77.6700,1011.7280, 222.2700,1
    30,08/03/18 00:12:40,51,  0.00, 19.80,299.917, 91.891, 94.862, 94.771, 91.507,, 84.189, 79.554, 77.560, 70.384, 63.380, 60.381, 54.780,,, 51.573,, 48.993,, 47.635,, 49.282,223.707,243.119,263.768,281.112,290.056,293.308,292.407,290.871,289.715,287.945,287.607,286.232,286.719,286.428,
    31,08/03/18 00:12:59,51,  0.00, 90.00,299.881, 38.513, 39.822, 39.317, 37.840,, 35.366, 33.413, 32.531, 30.400, 26.963, 26.145, 23.450,,, 22.947,, 21.997,, 21.931,, 21.929,113.897,132.276,158.365,191.758,230.117,264.075,285.645,292.799,294.365,292.594,293.008,289.552,291.422,290.910,
    32,08/03/18 00:13:18,51,  0.00,160.20,299.913, 83.581, 86.962, 86.051, 82.429,, 76.357, 71.453, 70.042, 63.474, 57.711, 54.185, 49.613,,, 47.271,, 45.097,, 44.265,, 45.365,212.016,232.699,256.244,276.657,289.613,294.583,294.597,293.792,292.046,289.758,289.397,287.216,288.096,287.762,
    33,08/03/18 00:13:42,41, 288.0890,  77.7300,1011.9060, 222.1500,1
    34,08/03/18 00:14:19,51,  0.00, 19.80,299.887, 91.359, 94.348, 94.167, 90.985,, 84.113, 79.633, 77.206, 70.530, 64.143, 59.989, 54.549,,, 52.364,, 49.081,, 48.211,, 49.094,223.554,243.059,264.067,281.130,290.263,293.020,292.562,291.103,289.752,287.884,287.383,286.028,286.555,286.424,
    35,08/03/18 00:14:38,51,  0.00, 90.00,299.891, 38.290, 39.551, 39.467, 38.327,, 35.223, 33.172, 32.278, 30.295, 26.989, 26.017, 23.069,,, 23.166,, 22.276,, 22.330,, 21.821,113.888,132.066,158.598,192.053,229.997,264.316,285.703,293.042,294.882,292.996,293.093,289.675,291.274,290.973,
    36,08/03/18 00:14:56,51,  0.00,160.20,299.895, 83.839, 87.106, 86.447, 83.125,, 76.579, 72.170, 69.854, 63.523, 58.008, 54.558, 49.745,,, 47.657,, 44.688,, 44.280,, 45.142,212.432,233.088,256.356,277.255,289.255,294.319,294.841,293.421,292.640,290.005,289.154,287.395,287.806,287.567,
    37,08/03/18 00:15:20,41, 288.1160,  77.5600,1011.7780, 222.4500,1
    38,08/03/18 00:15:57,51,  0.00, 19.80,299.841, 91.452, 94.163, 94.314, 90.605,, 83.832, 79.432, 76.800, 70.350, 63.788, 59.696, 54.880,,, 51.805,, 48.983,, 48.192,, 48.968,223.578,243.820,264.165,280.947,290.398,293.135,292.827,291.463,289.765,287.287,287.585,285.346,286.731,286.348,
    39,08/03/18 00:16:15,51,  0.00, 90.00,299.872, 38.344, 39.420, 39.783, 38.026,, 35.060, 33.233, 32.626, 30.158, 27.329, 25.800, 23.880,,, 22.987,, 22.084,, 22.684,, 22.535,113.650,132.866,158.436,191.557,229.905,263.829,285.626,293.402,295.108,292.308,292.877,289.108,291.297,291.164,
    40,08/03/18 00:16:34,51,  0.00,160.20,299.872, 84.109, 87.085, 86.584, 83.443,, 76.714, 72.016, 70.462, 63.919, 58.392, 54.328, 50.074,,, 47.660,, 45.470,, 44.669,, 45.398,212.007,233.231,256.593,276.420,289.342,294.338,295.219,293.469,292.043,289.566,289.472,287.103,288.087,287.856,
    41,08/03/18 00:16:58,41, 288.0070,  78.0000,1011.8680, 221.9900,1
    42,08/03/18 00:17:35,51,  0.00, 19.80,299.832, 91.425, 94.435, 94.123, 90.852,, 83.688, 79.704, 77.192, 70.325, 63.466, 59.319, 54.854,,, 51.935,, 48.923,, 47.828,, 48.795,223.593,243.539,263.704,281.288,290.134,293.281,292.771,291.206,289.760,287.937,287.822,285.769,287.220,286.947,
    43,08/03/18 00:17:54,51,  0.00, 90.00,299.835, 38.380, 40.025, 39.280, 38.521,, 34.879, 33.025, 32.590, 30.197, 26.860, 25.409, 23.659,,, 23.173,, 22.175,, 22.507,, 22.130,114.193,132.191,158.339,192.027,229.370,263.960,285.972,293.025,294.751,292.330,293.044,289.316,291.510,291.264,
    44,08/03/18 00:18:13,51,  0.00,160.20,299.851, 83.675, 86.796, 86.185, 82.577,, 76.059, 71.714, 69.471, 63.100, 57.500, 53.359, 49.759,,, 47.145,, 44.632,, 44.389,, 45.075,212.321,232.723,255.954,277.226,289.254,294.598,294.957,293.723,292.666,290.312,289.405,286.925,288.617,288.658,
    45,08/03/18 00:18:36,41, 288.0620,  77.8900,1011.8320, 221.7000,1
    46,08/03/18 00:19:13,51,  0.00, 19.80,299.821, 91.095, 94.148, 94.003, 90.484,, 83.745, 79.161, 76.881, 69.835, 63.071, 59.620, 54.470,,, 51.615,, 48.740,, 47.633,, 48.941,223.714,243.370,263.695,281.212,290.943,293.256,292.514,290.913,289.445,287.885,287.111,286.474,286.774,286.840,
    47,08/03/18 00:19:32,51,  0.00, 90.00,299.836, 38.161, 39.591, 39.031, 37.588,, 34.938, 33.088, 32.144, 29.871, 26.699, 25.606, 23.920,,, 23.173,, 21.687,, 21.858,, 22.821,114.069,132.591,158.463,192.002,230.309,263.753,285.582,293.158,294.697,293.012,292.985,289.274,290.831,291.070,
    48,08/03/18 00:19:50,51,  0.00,160.20,299.844, 83.807, 87.335, 86.283, 82.689,, 76.630, 72.492, 70.005, 63.731, 57.907, 53.552, 49.727,,, 47.587,, 44.834,, 44.105,, 45.901,212.550,233.243,256.582,277.198,290.129,294.609,295.038,294.094,292.870,290.161,289.650,287.770,288.000,288.356,
    49,08/03/18 00:20:14,41, 288.1160,  78.2200,1011.5400, 222.0300,1
    50,08/03/18 00:20:51,51,  0.00, 19.80,299.836, 91.158, 94.052, 93.828, 90.459,, 83.717, 79.058, 76.841, 70.139, 63.010, 59.625, 54.571,,, 51.449,, 48.556,, 46.890,, 48.451,223.093,243.190,264.096,281.336,290.674,293.201,292.273,291.947,290.396,288.026,287.685,285.252,286.513,286.908,
    51,08/03/18 00:21:10,51,  0.00, 90.00,299.834, 37.940, 39.349, 39.133, 37.514,, 35.161, 32.569, 32.066, 29.950, 26.709, 25.657, 23.791,,, 22.846,, 21.601,, 21.416,, 22.178,113.371,132.026,158.399,191.862,230.053,263.863,285.292,293.057,294.778,292.816,293.227,288.822,291.082,290.541,
    52,08/03/18 00:21:29,51,  0.00,160.20,299.825, 83.583, 87.165, 86.328, 82.479,, 76.343, 71.303, 69.525, 63.300, 57.343, 53.959, 49.691,,, 46.887,, 44.508,, 43.750,, 45.369,211.892,232.699,256.337,277.206,289.839,294.631,294.659,294.419,292.878,290.330,289.922,287.205,288.482,288.321,
    53,08/03/18 00:21:52,41, 288.0460,  77.9700,1011.7540, 222.5200,1
    54,08/03/18 00:22:29,51,  0.00, 19.80,299.807, 90.718, 94.112, 93.950, 90.573,, 83.556, 79.073, 76.678, 69.887, 62.862, 59.534, 54.689,,, 51.627,, 48.559,, 47.440,, 48.531,223.458,243.573,264.094,281.280,290.793,293.622,292.987,291.324,290.246,288.245,287.486,285.935,287.323,287.058,
    55,08/03/18 00:22:48,51,  0.00, 90.00,299.833, 37.943, 39.436, 39.096, 37.803,, 34.567, 32.909, 32.034, 29.844, 26.588, 25.484, 23.587,,, 23.021,, 21.523,, 22.168,, 21.983,113.919,132.440,158.656,191.890,230.426,264.380,286.063,293.906,294.944,293.125,293.139,289.159,291.810,290.833,
    56,08/03/18 00:23:07,51,  0.00,160.20,299.824, 83.488, 86.930, 86.309, 82.414,, 76.094, 71.801, 69.436, 63.499, 57.824, 54.247, 50.060,,, 47.283,, 44.552,, 44.296,, 45.054,212.040,233.172,256.717,277.082,289.764,294.799,294.945,294.181,292.885,290.907,289.960,287.306,288.323,287.866,
    57,08/03/18 00:23:30,41, 288.1440,  77.9200,1011.7920, 222.3800,1
    58,08/03/18 00:24:07,51,  0.00, 19.80,299.803, 90.972, 94.116, 93.652, 90.080,, 83.324, 78.945, 76.451, 69.900, 63.476, 58.655, 54.747,,, 51.724,, 48.915,, 47.713,, 48.734,223.319,243.410,264.156,281.732,290.773,292.811,292.653,291.201,289.965,287.791,287.654,285.656,287.184,287.332,
    59,08/03/18 00:24:26,51,  0.00, 90.00,299.798, 38.071, 39.549, 39.539, 37.756,, 35.040, 32.956, 32.481, 30.332, 27.390, 25.426, 24.061,,, 23.171,, 21.983,, 22.219,, 22.222,114.112,132.460,158.608,192.386,230.441,263.909,285.543,292.930,294.739,292.852,293.052,288.593,291.132,290.688,
    60,08/03/18 00:24:45,51,  0.00,160.20,299.826, 84.289, 87.655, 86.598, 82.840,, 76.763, 72.112, 70.046, 64.338, 58.537, 53.996, 50.779,,, 47.914,, 45.133,, 44.451,, 45.171,212.429,233.017,256.458,277.047,289.832,294.313,294.562,293.261,291.994,289.575,289.560,287.004,288.327,288.421,
    61,08/03/18 00:25:09,41, 288.0730,  77.9700,1011.8400, 222.2400,1
    62,08/03/18 00:25:46,51,  0.00, 19.80,299.786, 90.769, 94.135, 94.053, 90.595,, 83.434, 79.112, 77.063, 70.009, 63.255, 59.073, 54.366,,, 51.469,, 48.601,, 47.250,, 48.664,223.511,243.177,264.016,282.014,290.133,293.133,292.653,291.705,290.127,288.119,287.598,286.329,287.433,286.914,
    63,08/03/18 00:26:05,51,  0.00, 90.00,299.814, 37.523, 38.840, 38.852, 37.863,, 34.558, 32.820, 32.036, 29.512, 26.573, 25.335, 23.283,,, 22.982,, 21.614,, 22.245,, 22.665,113.957,132.207,157.982,191.849,229.470,263.739,285.885,293.249,294.836,293.198,292.727,289.394,291.976,291.259,
    64,08/03/18 00:26:24,51,  0.00,160.20,299.788, 83.115, 86.785, 86.367, 82.552,, 76.251, 71.655, 69.683, 63.299, 57.796, 54.036, 49.912,,, 47.194,, 44.539,, 44.062,, 45.231,211.885,233.182,256.376,277.306,289.312,294.095,294.822,294.191,292.295,289.988,289.399,287.552,288.642,287.884,
    65,08/03/18 00:26:47,41, 288.1160,  77.2600,1011.8060, 222.2600,1
    66,08/03/18 00:27:24,51,  0.00, 19.80,299.822, 90.455, 93.679, 93.590, 89.869,, 83.087, 79.116, 75.946, 69.648, 63.277, 59.045, 54.426,,, 51.604,, 48.251,, 47.511,, 48.428,223.543,243.525,264.301,281.601,290.905,293.328,292.699,291.621,289.899,288.355,287.419,285.541,286.726,287.287,
    67,08/03/18 00:27:43,51,  0.00, 90.00,299.823, 37.857, 39.326, 39.498, 37.944,, 35.091, 32.722, 32.094, 30.086, 27.570, 25.538, 23.624,,, 23.326,, 21.533,, 22.730,, 22.973,114.400,132.575,158.660,192.143,230.254,264.301,285.504,293.412,294.518,293.342,292.638,288.960,291.426,290.997,
    68,08/03/18 00:28:02,51,  0.00,160.20,299.812, 83.303, 86.900, 86.349, 82.659,, 76.105, 71.895, 69.346, 63.374, 57.823, 53.772, 49.762,,, 47.685,, 44.629,, 44.125,, 45.400,212.223,233.165,256.684,277.402,289.925,294.609,294.976,294.384,292.797,290.369,289.309,286.523,288.299,288.149,
    69,08/03/18 00:28:25,41, 287.9910,  78.2800,1011.7000, 222.4900,1
    70,08/03/18 00:29:02,51,  0.00, 19.80,299.791, 90.664, 93.069, 93.432, 89.942,, 83.235, 78.916, 76.605, 69.808, 63.081, 59.280, 54.354,,, 51.235,, 48.374,, 47.470,, 48.751,223.388,242.727,263.783,281.318,290.370,293.746,293.030,291.493,290.087,288.118,287.490,286.092,286.925,286.543,
    71,08/03/18 00:29:21,51,  0.00, 90.00,299.766, 37.523, 39.003, 38.923, 37.444,, 34.779, 32.830, 32.338, 30.097, 27.187, 25.478, 23.628,,, 23.196,, 22.040,, 22.207,, 22.983,114.188,132.010,158.622,192.253,229.968,264.173,285.965,293.067,294.542,293.133,292.678,289.355,291.191,291.199,
    72,08/03/18 00:29:40,51,  0.00,160.20,299.821, 83.405, 86.408, 86.010, 82.584,, 76.278, 71.975, 69.821, 63.578, 58.235, 54.007, 50.009,,, 47.349,, 44.923,, 44.183,, 45.801,212.414,232.698,256.361,277.291,289.748,294.353,294.649,293.214,292.152,289.941,289.151,287.375,288.306,288.347,
    73,08/03/18 00:30:03,41, 287.9640,  78.3600,1011.8300, 222.3700,1
    74,08/03/18 00:30:40,51,  0.00, 19.80,299.766, 90.490, 93.756, 93.306, 90.397,, 83.346, 78.575, 76.355, 69.863, 62.735, 59.674, 54.245,,, 51.378,, 48.151,, 47.007,, 47.888,223.060,243.282,263.743,281.323,290.817,293.842,292.977,291.806,290.398,287.783,287.886,286.125,286.995,287.155,
    75,08/03/18 00:30:59,51,  0.00, 90.00,299.783, 37.726, 39.093, 39.090, 37.938,, 34.746, 32.396, 32.172, 30.005, 27.170, 26.140, 23.793,,, 22.971,, 21.658,, 22.121,, 22.169,113.738,132.755,158.280,192.111,230.477,264.537,286.169,293.415,294.681,292.617,292.735,289.747,291.395,291.274,
    76,08/03/18 00:31:18,51,  0.00,160.20,299.805, 82.919, 86.792, 85.684, 82.521,, 76.226, 71.467, 69.493, 63.344, 57.443, 54.388, 49.886,,, 47.147,, 44.682,, 43.857,, 44.936,212.085,233.243,255.964,276.842,289.999,294.686,294.988,293.625,291.952,289.348,289.393,287.061,287.828,288.241,
    77,08/03/18 00:31:42,41, 288.0190,  77.9300,1011.4340, 222.1300,1
    78,08/03/18 00:32:19,51,  0.00, 19.80,299.790, 90.429, 93.535, 93.528, 89.855,, 83.461, 78.600, 76.362, 69.410, 63.150, 59.105, 54.378,,, 50.931,, 48.004,, 47.445,, 48.426,223.641,243.377,264.047,281.509,290.737,293.405,293.364,291.717,290.004,288.206,287.356,285.824,287.432,286.830,
    79,08/03/18 00:32:38,51,  0.00, 90.00,299.797, 38.139, 39.146, 39.327, 37.805,, 35.241, 33.179, 32.461, 30.112, 27.459, 25.964, 24.003,,, 23.379,, 21.952,, 22.596,, 23.272,114.363,132.734,158.499,192.250,229.874,263.884,286.386,293.442,294.656,293.105,292.575,289.001,291.860,291.063,
    80,08/03/18 00:32:57,51,  0.00,160.20,299.780, 83.434, 87.050, 86.390, 83.057,, 76.563, 71.841, 69.994, 63.921, 58.429, 54.188, 49.845,,, 47.663,, 44.767,, 44.255,, 46.058,212.422,233.190,256.410,277.084,289.578,294.721,295.590,294.617,292.625,289.788,289.769,287.467,288.930,288.047,
    81,08/03/18 00:33:20,41, 287.8940,  78.0900,1011.7160, 222.3200,1
    82,08/03/18 00:33:58,51,  0.00, 19.80,299.738, 89.954, 93.606, 93.478, 89.942,, 83.180, 78.159, 76.504, 69.482, 62.887, 59.181, 54.011,,, 51.497,, 48.233,, 47.101,, 48.420,223.348,243.025,264.233,281.114,290.739,292.969,292.646,291.873,289.822,288.416,287.518,285.824,287.248,286.835,
    83,08/03/18 00:34:16,51,  0.00, 90.00,299.762, 37.712, 39.788, 39.520, 38.053,, 35.259, 33.042, 32.640, 30.007, 26.711, 25.944, 24.409,,, 23.348,, 22.148,, 22.443,, 22.754,114.317,132.528,159.106,192.242,230.396,263.787,285.746,293.574,294.442,293.036,292.784,289.218,291.144,291.097,
    84,08/03/18 00:34:35,51,  0.00,160.20,299.756, 83.066, 86.936, 86.538, 82.631,, 76.486, 71.423, 70.139, 63.862, 57.918, 54.249, 50.444,,, 47.460,, 44.600,, 44.259,, 45.621,212.291,233.056,256.561,277.203,289.852,294.147,294.789,294.370,292.475,290.156,289.341,287.563,288.608,288.497,
    85,08/03/18 00:34:59,41, 287.8660,  78.5100,1011.7520, 222.0100,1
    86,08/03/18 00:35:36,51,  0.00, 19.80,299.710, 90.300, 93.858, 93.605, 90.051,, 83.235, 78.636, 76.318, 69.724, 62.970, 59.161, 53.970,,, 51.504,, 48.599,, 47.361,, 48.266,223.552,243.057,263.966,281.505,290.921,292.898,292.717,290.725,289.907,288.028,287.504,285.773,287.154,287.240,
    87,08/03/18 00:35:55,51,  0.00, 90.00,299.745, 38.335, 39.710, 39.721, 38.012,, 35.306, 33.083, 32.614, 30.345, 27.334, 26.183, 23.890,,, 23.646,, 22.700,, 22.474,, 23.056,114.618,132.800,158.463,192.309,230.214,263.741,285.947,292.654,294.659,292.425,292.574,288.867,291.030,290.598,
    88,08/03/18 00:36:13,51,  0.00,160.20,299.741, 83.641, 87.035, 86.580, 82.939,, 76.646, 71.811, 69.849, 63.785, 58.015, 54.297, 50.321,,, 47.764,, 45.379,, 44.616,, 45.533,212.410,232.742,256.001,276.853,289.717,293.765,294.737,293.312,291.561,289.757,288.837,286.989,287.706,288.008,
    89,08/03/18 00:36:37,41, 287.8230,  78.4300,1011.8260, 221.8500,1
    90,08/03/18 00:37:14,51,  0.00, 19.80,299.706, 90.863, 94.023, 93.582, 89.612,, 83.500, 78.359, 76.240, 69.885, 62.776, 58.966, 54.481,,, 51.417,, 48.382,, 47.226,, 48.703,223.398,243.403,264.351,281.173,290.559,293.393,292.706,291.627,290.069,288.552,287.821,285.934,287.118,287.306,
    91,08/03/18 00:37:33,51,  0.00, 90.00,299.709, 38.486, 40.077, 39.890, 38.320,, 35.446, 33.351, 32.733, 30.158, 27.784, 26.119, 24.300,,, 23.579,, 22.304,, 22.815,, 23.139,114.583,132.994,158.661,191.905,230.305,263.931,285.202,293.232,294.503,292.819,292.367,289.385,290.905,290.726,
    92,08/03/18 00:37:52,51,  0.00,160.20,299.720, 83.650, 87.522, 86.678, 82.631,, 76.708, 71.815, 69.823, 63.821, 58.562, 54.570, 49.936,,, 47.858,, 45.092,, 44.765,, 45.652,212.782,233.228,256.547,276.624,289.814,294.153,294.225,293.687,292.448,290.091,289.174,287.336,288.382,287.716,
    93,08/03/18 00:38:19,41, 287.8120,  78.9800,1011.8800, 222.4900,1
    94,08/03/18 00:38:57,51,  0.00, 19.80,299.680, 90.165, 93.864, 93.497, 89.515,, 82.863, 78.443, 76.039, 69.545, 62.842, 58.791, 54.315,,, 51.469,, 48.675,, 47.325,, 48.543,223.149,243.140,263.799,281.265,290.488,293.062,292.569,291.001,289.843,288.232,287.291,285.485,286.865,286.759,
    95,08/03/18 00:39:16,51,  0.00, 90.00,299.667, 38.365, 40.649, 40.309, 38.519,, 35.674, 33.920, 33.102, 30.966, 28.181, 26.488, 24.742,,, 23.543,, 22.810,, 22.946,, 22.886,114.599,132.863,158.882,192.245,229.986,263.929,285.502,292.514,294.064,292.339,292.454,288.783,291.051,290.816,
    96,08/03/18 00:39:34,51,  0.00,160.20,299.693, 83.731, 87.760, 86.728, 83.223,, 76.786, 71.656, 70.329, 64.562, 58.619, 54.788, 50.390,,, 47.593,, 45.798,, 44.883,, 45.670,212.469,233.095,256.389,277.312,289.679,294.355,294.710,293.407,292.168,290.408,289.056,286.804,288.042,287.957,
    97,08/03/18 00:39:58,41, 287.8120,  78.6900,1011.7320, 222.1800,1
    98,08/03/18 00:40:35,51,  0.00, 19.80,299.649, 90.448, 93.761, 92.955, 89.618,, 82.742, 78.282, 76.042, 69.902, 63.259, 58.968, 54.355,,, 51.462,, 48.289,, 47.695,, 47.751,223.446,243.197,264.074,281.116,290.693,293.132,292.509,290.938,289.304,287.834,287.038,285.226,286.577,287.442,